SCP
0 0 0 0 0 0 0 0 0 0 0 0 0 0 0 0 0 0 0 0 0 0 0 0 0 0 0 0 0 0 1 2 3 3 3 3 3 2 1 2 2 2 2 4
0 0 0 0 0 0 0 0 0 0 0 0 0 0 0 0 0 0 0 0 0 0 0 0 0 0 0 0 0 0 1 2 3 5 6 5 4 3 2 1 1 1 1 2
0 0 0 0 0 0 0 0 0 0 0 0 0 0 0 0 0 0 0 0 0 0 0 0 0 0 0 0 0 0 1 1 2 3 6 6 7 7 5 3 3 3 2 2
0 0 0 0 0 0 0 0 0 0 0 0 0 -0 0 0 0 0 0 0 0 0 0 0 0 0 0 0 0 0 0 1 2 3 3 4 7 7 7 7 5 4 2 2
0 0 0 0 0 0 0 0 0 0 0 0 0 0 0 0 0 0 0 0 0 0 0 0 0 0 0 0 0 0 0 0 1 2 4 6 6 8 5 7 5 6 5 3
0 0 0 0 0 0 0 0 0 0 0 0 0 0 0 0 0 0 0 0 0 0 0 0 0 0 0 0 0 0 0 0 1 2 3 4 5 3 3 4 4 3 3 4
0 0 0 0 0 0 0 0 0 0 0 0 0 0 0 0 0 0 0 0 0 0 0 0 0 0 0 0 0 0 0 0 0 1 3 3 4 3 3 3 2 2 2 2
0 0 0 0 0 0 0 0 0 0 0 0 0 0 0 0 0 0 0 0 0 0 0 0 0 0 0 0 0 0 0 0 0 0 2 2 2 2 2 2 1 1 2 2
0 0 0 0 0 0 0 0 0 0 0 0 0 0 0 0 0 0 0 0 0 0 0 0 0 0 0 0 0 0 0 0 0 0 1 1 1 1 1 1 2 1 1 1
0 0 0 0 0 0 0 0 0 0 0 0 0 0 0 0 0 0 0 0 0 0 0 0 0 0 0 0 0 0 -0 0 0 0 1 1 1 1 1 1 1 1 1 1
0 0 0 0 0 0 0 0 0 0 0 0 0 0 0 0 0 0 0 0 0 0 0 0 0 0 0 0 0 0 0 0 0 1 1 1 1 1 1 1 1 1 1 1
0 0 0 0 0 0 0 0 0 0 0 0 0 0 0 0 0 0 0 0 0 0 0 0 0 0 0 0 0 0 0 0 0 0 0 0 0 0 0 0 1 1 0 0
0 0 0 0 0 0 0 0 0 0 0 0 0 0 0 0 0 0 0 0 0 0 0 0 0 0 0 0 0 0 0 0 0 0 -0 0 0 0 1 1 1 -0 0 0
0 0 0 0 0 0 0 0 0 0 0 0 0 0 0 0 0 0 0 0 0 0 0 0 0 0 0 0 0 0 0 0 0 0 0 0 0 0 0 0 0 0 0 1
0 0 0 0 0 0 0 0 0 0 0 0 0 0 0 0 0 0 0 0 0 0 0 0 0 0 0 0 0 0 0 0 0 0 0 0 0 0 0 0 0 0 0 0
0 0 0 0 0 0 0 0 0 0 0 0 0 -0 0 0 0 0 0 0 0 0 0 0 0 0 0 0 0 0 0 0 0 0 0 0 0 0 0 0 -0 0 0 0
0 0 0 0 0 0 0 0 0 0 0 0 0 0 0 0 0 0 0 0 0 0 0 0 0 0 0 0 0 0 0 0 0 0 0 0 0 0 0 0 0 0 0 0
0 0 0 0 0 0 0 0 0 0 0 0 0 0 0 0 0 0 0 0 0 0 0 0 0 -0 -0 -0 -0 -0 0 0 0 0 0 0 0 0 0 0 0 0 0 0
0 0 0 0 0 0 0 0 0 0 0 0 0 0 0 0 0 0 0 0 0 0 0 0 0 0 0 0 0 -0 -0 -0 0 0 0 0 0 0 0 0 0 0 0 0
0 0 0 0 0 0 0 0 0 0 0 0 0 0 0 0 0 0 0 0 0 0 0 0 0 0 0 -0 -0 -0 -0 -0 0 0 0 0 0 0 0 0 0 0 0 0
0 0 0 0 0 0 0 0 0 0 0 0 0 0 0 0 0 0 0 0 0 0 0 0 0 0 0 -0 -0 -0 -0 -0 0 0 0 0 0 0 0 0 0 0 0 0
0 0 0 0 0 0 0 0 0 0 0 0 0 0 0 0 0 0 0 0 0 0 -0 -0 0 0 0 0 0 0 0 0 0 0 0 0 0 0 0 0 0 0 0 0
0 0 0 0 0 0 0 0 0 0 0 0 0 0 0 0 0 0 0 0 0 0 0 -0 0 0 0 0 0 -0 0 0 0 0 0 0 0 0 0 0 0 0 0 0
0 0 0 0 0 0 0 0 0 0 0 0 0 0 0 0 0 0 0 0 0 0 -0 -0 0 0 0 0 0 -0 0 0 0 0 0 0 0 0 0 0 0 0 0 0
0 0 0 0 0 0 0 -0 -0 0 0 0 0 0 0 0 0 0 0 0 0 0 -0 0 0 0 0 0 0 0 -0 -0 -0 -0 0 0 0 0 0 0 0 0 0 0
0 0 0 0 0 -0 0 0 0 0 0 0 0 0 0 0 0 0 0 0 0 0 -0 0 -0 0 -0 0 0 0 -0 -0 -0 0 0 0 0 0 0 0 0 0 0 0
Wind_Speed_500mb
4 10 16 18 10 3 3 7 15 19 20 11 22 21 25 25 19 23 22 14 21 25 19 22 25 33 58 67 75 74 77 68 72 74 77 77 77 80 85 85 83 72 75 75
7 21 20 7 10 10 10 12 18 19 21 12 21 24 20 21 24 26 24 23 26 26 24 24 30 27 27 65 85 86 89 84 82 78 75 75 73 79 82 83 75 71 76 72
18 6 10 19 13 11 12 13 10 14 9 9 14 22 21 17 19 25 32 33 31 28 40 38 35 30 28 26 45 89 89 87 85 81 80 78 76 78 75 72 70 72 70 68
16 14 20 16 17 22 22 27 24 19 11 21 5 21 21 18 23 20 27 27 30 38 35 39 43 42 45 35 31 33 73 87 87 85 85 87 88 86 77 78 78 75 73 66
6 11 16 17 29 20 18 8 11 14 18 10 20 14 24 12 23 27 31 38 30 31 37 47 45 45 40 45 46 43 43 57 93 101 93 91 90 84 82 75 77 70 67 57
23 5 8 12 6 18 5 15 6 3 9 23 31 24 17 22 24 27 23 21 25 31 33 44 52 54 58 55 53 56 56 54 58 92 102 96 94 90 84 77 73 67 66 61
19 31 19 19 24 23 14 19 14 13 16 26 18 26 28 19 25 32 24 28 31 32 34 38 41 43 50 53 55 58 63 65 64 67 93 101 98 95 83 75 64 60 58 57
15 18 14 14 26 22 16 17 17 19 16 18 2 16 13 14 22 17 9 21 26 26 26 28 32 36 40 42 49 55 60 69 71 70 82 91 83 76 69 61 58 53 49 47
7 10 4 12 22 15 23 19 16 26 12 15 19 24 18 18 13 7 13 23 30 31 33 33 35 38 41 44 49 54 57 58 59 67 81 78 69 58 50 48 42 36 35 34
6 18 10 8 3 8 14 10 9 10 16 30 16 14 13 14 13 6 13 23 42 38 36 31 30 28 27 37 43 40 43 38 35 53 65 57 48 43 42 40 31 24 21 24
10 8 20 13 11 25 13 12 7 8 7 14 24 15 5 3 3 12 13 32 37 45 41 35 33 27 33 26 32 30 32 26 22 45 50 52 47 44 45 42 28 23 21 23
7 8 15 27 18 9 11 16 8 14 9 9 12 18 1 4 6 15 38 39 45 30 37 37 32 26 24 25 31 18 27 21 12 23 36 48 50 49 52 53 41 40 31 26
6 7 9 9 10 8 17 13 1 5 4 14 14 13 11 12 31 37 36 47 40 25 21 22 22 21 18 20 23 19 19 23 30 23 20 35 46 49 49 48 47 58 47 39
7 9 22 24 14 4 6 14 13 10 8 25 26 41 40 32 28 35 36 30 28 20 15 19 23 26 25 18 23 25 15 37 41 52 43 41 37 39 53 64 68 72 65 58
8 10 18 26 29 27 30 36 34 37 39 36 42 44 40 37 25 22 23 26 32 21 17 19 23 27 29 30 27 23 23 17 10 35 53 51 65 50 40 49 64 80 78 77
21 8 13 24 25 35 39 39 38 38 37 38 40 47 30 13 16 19 23 26 32 34 25 24 29 34 35 35 36 40 41 37 31 29 26 31 41 60 62 43 41 47 64 74
15 14 11 23 14 12 19 26 29 21 19 19 25 18 9 19 19 27 35 40 44 45 35 33 40 44 45 47 53 54 52 53 50 51 49 48 44 45 43 46 50 54 48 49
19 19 9 10 7 9 7 4 5 8 13 16 19 19 16 16 30 44 49 53 47 29 33 45 55 57 55 51 51 53 52 51 50 51 53 56 56 55 53 52 53 52 52 55
27 17 6 7 9 15 3 6 1 4 10 11 15 15 21 35 50 43 28 27 28 45 59 66 59 56 60 59 55 55 56 55 53 53 52 52 55 60 60 64 65 64 61 60
13 16 10 7 7 6 5 9 6 2 17 6 8 17 26 39 23 32 50 55 65 61 60 67 67 69 64 57 55 61 66 66 65 62 59 54 54 58 61 68 72 73 75 73
9 5 15 12 10 6 5 5 4 9 6 10 19 32 41 31 38 66 65 69 65 66 68 77 78 70 63 64 66 70 73 71 65 63 62 64 67 65 62 63 65 68 74 73
7 9 6 7 6 7 2 2 6 14 30 28 37 41 47 53 60 62 63 68 71 72 71 85 76 69 72 75 76 83 78 70 71 80 86 72 62 59 59 61 63 62 65 71
5 5 1 11 4 2 5 14 19 19 31 38 44 51 52 55 54 58 63 72 78 69 77 84 82 86 73 74 73 80 84 81 81 65 67 63 68 77 81 65 60 59 62 67
4 5 6 6 5 4 20 12 17 33 38 46 48 53 51 58 61 68 74 75 75 77 80 79 83 75 83 72 83 71 80 63 64 75 67 70 69 64 61 66 64 65 71 76
6 5 5 9 4 22 5 25 36 41 43 50 53 54 59 62 70 71 80 83 81 71 88 80 76 81 79 80 68 65 61 60 68 73 75 72 74 75 75 74 76 77 80 76
5 4 4 5 14 15 36 40 45 46 53 53 57 61 61 68 74 79 84 83 76 82 89 84 76 78 80 71 71 66 61 63 67 72 73 71 72 72 73 76 81 82 84 83
Wind_Direction_500mb
59 216 218 222 210 167 209 261 275 277 278 303 283 282 279 282 290 288 292 278 295 297 302 300 290 267 238 235 240 242 240 238 236 234 233 233 233 230 230 233 235 224 232 236
195 241 233 202 197 219 233 267 271 284 278 205 276 272 269 272 278 276 285 273 274 274 279 287 303 302 280 242 236 237 234 235 234 235 236 234 234 230 228 229 229 229 228 232
224 195 172 194 203 225 231 223 233 259 314 236 278 272 261 249 247 259 265 280 285 278 295 298 292 287 294 294 259 239 237 238 235 236 234 234 231 226 222 223 226 227 227 236
246 231 222 209 230 214 246 214 242 259 264 277 231 285 264 257 250 252 264 262 263 286 296 303 302 291 287 281 269 263 246 245 245 243 237 236 233 228 226 230 227 226 231 233
206 178 186 209 233 189 261 186 252 263 264 266 247 259 276 223 247 253 257 262 268 280 289 295 298 290 283 290 284 271 260 250 242 241 242 239 232 234 234 232 231 223 228 232
257 244 253 249 175 198 285 277 269 195 252 253 258 248 262 256 258 275 266 262 279 292 298 298 296 296 295 289 289 286 274 266 252 243 239 236 233 234 239 237 232 230 238 242
242 245 245 228 261 250 239 272 276 253 230 259 280 262 263 259 255 267 293 303 307 311 313 310 304 300 297 293 287 280 276 271 261 248 237 236 234 234 236 238 237 230 228 233
258 265 209 188 215 257 229 243 255 268 260 274 218 255 264 251 274 266 341 341 334 327 331 330 323 316 313 311 302 291 282 276 263 250 236 231 228 229 228 228 225 223 226 229
211 244 276 263 273 247 258 233 271 261 260 262 251 256 264 247 252 352 352 0 353 343 329 326 328 328 326 322 313 299 288 276 258 247 228 222 218 216 218 216 213 214 220 226
285 279 253 284 241 179 227 154 210 213 269 269 248 267 259 263 266 326 335 350 344 331 320 324 320 334 348 342 330 332 317 277 257 250 225 214 212 213 216 211 210 214 219 228
328 252 247 316 252 269 244 228 229 284 238 265 280 263 122 255 266 315 342 327 330 328 321 313 320 311 306 334 359 349 329 310 253 219 208 208 207 209 200 209 207 213 218 226
352 293 256 257 269 288 256 274 258 231 230 248 285 272 8 351 352 339 320 320 318 323 326 323 318 316 313 317 308 328 35 1 297 244 227 224 226 215 212 213 212 224 220 217
295 225 263 251 241 253 257 253 213 21 47 217 257 263 164 311 324 323 322 316 312 307 329 342 350 359 344 347 332 310 270 297 329 340 298 258 253 250 229 232 229 234 231 226
126 256 245 261 293 318 288 273 249 220 240 274 253 278 286 299 312 317 325 335 330 323 333 346 354 355 359 357 357 1 311 251 277 304 295 296 303 270 252 250 249 247 240 234
222 248 256 265 265 267 265 258 259 250 254 256 276 283 291 298 305 306 309 322 333 312 328 342 345 341 343 347 334 335 337 342 309 254 279 288 278 281 278 261 254 245 245 242
161 260 253 267 268 266 267 262 258 256 257 258 270 276 299 290 287 295 307 319 315 303 300 316 324 325 322 321 318 317 310 306 303 294 278 261 255 249 259 265 268 259 249 245
209 240 256 276 282 296 264 264 242 241 245 255 262 290 309 297 300 313 310 305 299 296 285 303 315 316 315 314 313 305 302 301 296 290 285 281 277 271 266 256 252 257 255 253
229 221 225 277 288 246 57 49 100 231 254 238 266 277 300 312 305 299 298 293 292 292 297 309 312 308 309 306 303 301 299 298 294 288 286 283 278 275 272 268 261 259 258 256
214 198 201 236 232 306 195 195 197 340 289 331 297 310 309 319 315 299 322 316 300 301 301 301 300 297 300 298 294 293 294 293 290 287 285 281 279 277 273 268 266 263 263 259
151 180 207 167 244 265 112 119 44 148 264 74 342 316 318 322 300 297 309 300 297 297 301 300 298 297 294 293 293 294 294 290 283 282 280 278 278 274 272 270 268 265 262 260
146 180 212 232 252 263 87 352 288 257 28 313 302 302 303 296 287 295 300 299 298 299 301 305 299 294 288 291 292 289 292 284 280 280 279 276 279 273 270 269 265 262 259 256
191 178 195 205 237 260 70 241 290 333 300 289 299 304 301 297 298 299 300 298 296 298 304 304 291 290 289 289 289 289 285 284 281 284 285 278 269 264 266 268 264 257 254 252
228 272 300 216 295 116 240 276 285 293 292 295 298 303 303 295 290 296 299 302 301 294 304 306 290 290 290 290 286 285 283 285 285 275 279 268 268 271 273 264 260 259 252 246
178 218 257 278 154 278 302 290 274 306 299 303 299 300 301 298 297 296 300 300 294 295 307 302 298 285 293 288 292 280 288 283 276 279 278 275 273 270 264 261 258 256 250 246
298 266 259 260 295 323 220 307 315 309 303 306 306 305 302 298 293 296 301 302 292 294 309 300 295 289 289 294 289 287 282 279 277 275 279 277 273 270 267 263 259 253 252 247
222 263 252 321 334 294 302 314 312 309 312 311 309 308 304 297 292 296 296 298 290 300 306 298 297 291 294 292 291 288 284 283 281 277 275 272 270 269 267 267 268 267 264 260
Wind_Speed_850mb
4 10 16 18 10 3 3 7 15 19 20 11 22 21 25 25 19 23 22 14 21 25 19 22 25 33 58 67 75 74 77 68 72 74 77 77 77 80 85 85 83 72 75 75
7 21 20 7 10 10 10 12 18 19 21 12 21 24 20 21 24 26 24 23 26 26 24 24 30 27 27 65 85 86 89 84 82 78 75 75 73 79 82 83 75 71 76 72
18 6 10 19 13 11 12 13 10 14 9 9 14 22 21 17 19 25 32 33 31 28 40 38 35 30 28 26 45 89 89 87 85 81 80 78 76 78 75 72 70 72 70 68
16 14 20 16 17 22 22 27 24 19 11 21 5 21 21 18 23 20 27 27 30 38 35 39 43 42 45 35 31 33 73 87 87 85 85 87 88 86 77 78 78 75 73 66
6 11 16 17 29 20 18 8 11 14 18 10 20 14 24 12 23 27 31 38 30 31 37 47 45 45 40 45 46 43 43 57 93 101 93 91 90 84 82 75 77 70 67 57
23 5 8 12 6 18 5 15 6 3 9 23 31 24 17 22 24 27 23 21 25 31 33 44 52 54 58 55 53 56 56 54 58 92 102 96 94 90 84 77 73 67 66 61
19 31 19 19 24 23 14 19 14 13 16 26 18 26 28 19 25 32 24 28 31 32 34 38 41 43 50 53 55 58 63 65 64 67 93 101 98 95 83 75 64 60 58 57
15 18 14 14 26 22 16 17 17 19 16 18 2 16 13 14 22 17 9 21 26 26 26 28 32 36 40 42 49 55 60 69 71 70 82 91 83 76 69 61 58 53 49 47
7 10 4 12 22 15 23 19 16 26 12 15 19 24 18 18 13 7 13 23 30 31 33 33 35 38 41 44 49 54 57 58 59 67 81 78 69 58 50 48 42 36 35 34
6 18 10 8 3 8 14 10 9 10 16 30 16 14 13 14 13 6 13 23 42 38 36 31 30 28 27 37 43 40 43 38 35 53 65 57 48 43 42 40 31 24 21 24
10 8 20 13 11 25 13 12 7 8 7 14 24 15 5 3 3 12 13 32 37 45 41 35 33 27 33 26 32 30 32 26 22 45 50 52 47 44 45 42 28 23 21 23
7 8 15 27 18 9 11 16 8 14 9 9 12 18 1 4 6 15 38 39 45 30 37 37 32 26 24 25 31 18 27 21 12 23 36 48 50 49 52 53 41 40 31 26
6 7 9 9 10 8 17 13 1 5 4 14 14 13 11 12 31 37 36 47 40 25 21 22 22 21 18 20 23 19 19 23 30 23 20 35 46 49 49 48 47 58 47 39
7 9 22 24 14 4 6 14 13 10 8 25 26 41 40 32 28 35 36 30 28 20 15 19 23 26 25 18 23 25 15 37 41 52 43 41 37 39 53 64 68 72 65 58
8 10 18 26 29 27 30 36 34 37 39 36 42 44 40 37 25 22 23 26 32 21 17 19 23 27 29 30 27 23 23 17 10 35 53 51 65 50 40 49 64 80 78 77
21 8 13 24 25 35 39 39 38 38 37 38 40 47 30 13 16 19 23 26 32 34 25 24 29 34 35 35 36 40 41 37 31 29 26 31 41 60 62 43 41 47 64 74
15 14 11 23 14 12 19 26 29 21 19 19 25 18 9 19 19 27 35 40 44 45 35 33 40 44 45 47 53 54 52 53 50 51 49 48 44 45 43 46 50 54 48 49
19 19 9 10 7 9 7 4 5 8 13 16 19 19 16 16 30 44 49 53 47 29 33 45 55 57 55 51 51 53 52 51 50 51 53 56 56 55 53 52 53 52 52 55
27 17 6 7 9 15 3 6 1 4 10 11 15 15 21 35 50 43 28 27 28 45 59 66 59 56 60 59 55 55 56 55 53 53 52 52 55 60 60 64 65 64 61 60
13 16 10 7 7 6 5 9 6 2 17 6 8 17 26 39 23 32 50 55 65 61 60 67 67 69 64 57 55 61 66 66 65 62 59 54 54 58 61 68 72 73 75 73
9 5 15 12 10 6 5 5 4 9 6 10 19 32 41 31 38 66 65 69 65 66 68 77 78 70 63 64 66 70 73 71 65 63 62 64 67 65 62 63 65 68 74 73
7 9 6 7 6 7 2 2 6 14 30 28 37 41 47 53 60 62 63 68 71 72 71 85 76 69 72 75 76 83 78 70 71 80 86 72 62 59 59 61 63 62 65 71
5 5 1 11 4 2 5 14 19 19 31 38 44 51 52 55 54 58 63 72 78 69 77 84 82 86 73 74 73 80 84 81 81 65 67 63 68 77 81 65 60 59 62 67
4 5 6 6 5 4 20 12 17 33 38 46 48 53 51 58 61 68 74 75 75 77 80 79 83 75 83 72 83 71 80 63 64 75 67 70 69 64 61 66 64 65 71 76
6 5 5 9 4 22 5 25 36 41 43 50 53 54 59 62 70 71 80 83 81 71 88 80 76 81 79 80 68 65 61 60 68 73 75 72 74 75 75 74 76 77 80 76
5 4 4 5 14 15 36 40 45 46 53 53 57 61 61 68 74 79 84 83 76 82 89 84 76 78 80 71 71 66 61 63 67 72 73 71 72 72 73 76 81 82 84 83
Wind_Direction_850mb
59 216 218 222 210 167 209 261 275 277 278 303 283 282 279 282 290 288 292 278 295 297 302 300 290 267 238 235 240 242 240 238 236 234 233 233 233 230 230 233 235 224 232 236
195 241 233 202 197 219 233 267 271 284 278 205 276 272 269 272 278 276 285 273 274 274 279 287 303 302 280 242 236 237 234 235 234 235 236 234 234 230 228 229 229 229 228 232
224 195 172 194 203 225 231 223 233 259 314 236 278 272 261 249 247 259 265 280 285 278 295 298 292 287 294 294 259 239 237 238 235 236 234 234 231 226 222 223 226 227 227 236
246 231 222 209 230 214 246 214 242 259 264 277 231 285 264 257 250 252 264 262 263 286 296 303 302 291 287 281 269 263 246 245 245 243 237 236 233 228 226 230 227 226 231 233
206 178 186 209 233 189 261 186 252 263 264 266 247 259 276 223 247 253 257 262 268 280 289 295 298 290 283 290 284 271 260 250 242 241 242 239 232 234 234 232 231 223 228 232
257 244 253 249 175 198 285 277 269 195 252 253 258 248 262 256 258 275 266 262 279 292 298 298 296 296 295 289 289 286 274 266 252 243 239 236 233 234 239 237 232 230 238 242
242 245 245 228 261 250 239 272 276 253 230 259 280 262 263 259 255 267 293 303 307 311 313 310 304 300 297 293 287 280 276 271 261 248 237 236 234 234 236 238 237 230 228 233
258 265 209 188 215 257 229 243 255 268 260 274 218 255 264 251 274 266 341 341 334 327 331 330 323 316 313 311 302 291 282 276 263 250 236 231 228 229 228 228 225 223 226 229
211 244 276 263 273 247 258 233 271 261 260 262 251 256 264 247 252 352 352 0 353 343 329 326 328 328 326 322 313 299 288 276 258 247 228 222 218 216 218 216 213 214 220 226
285 279 253 284 241 179 227 154 210 213 269 269 248 267 259 263 266 326 335 350 344 331 320 324 320 334 348 342 330 332 317 277 257 250 225 214 212 213 216 211 210 214 219 228
328 252 247 316 252 269 244 228 229 284 238 265 280 263 122 255 266 315 342 327 330 328 321 313 320 311 306 334 359 349 329 310 253 219 208 208 207 209 200 209 207 213 218 226
352 293 256 257 269 288 256 274 258 231 230 248 285 272 8 351 352 339 320 320 318 323 326 323 318 316 313 317 308 328 35 1 297 244 227 224 226 215 212 213 212 224 220 217
295 225 263 251 241 253 257 253 213 21 47 217 257 263 164 311 324 323 322 316 312 307 329 342 350 359 344 347 332 310 270 297 329 340 298 258 253 250 229 232 229 234 231 226
126 256 245 261 293 318 288 273 249 220 240 274 253 278 286 299 312 317 325 335 330 323 333 346 354 355 359 357 357 1 311 251 277 304 295 296 303 270 252 250 249 247 240 234
222 248 256 265 265 267 265 258 259 250 254 256 276 283 291 298 305 306 309 322 333 312 328 342 345 341 343 347 334 335 337 342 309 254 279 288 278 281 278 261 254 245 245 242
161 260 253 267 268 266 267 262 258 256 257 258 270 276 299 290 287 295 307 319 315 303 300 316 324 325 322 321 318 317 310 306 303 294 278 261 255 249 259 265 268 259 249 245
209 240 256 276 282 296 264 264 242 241 245 255 262 290 309 297 300 313 310 305 299 296 285 303 315 316 315 314 313 305 302 301 296 290 285 281 277 271 266 256 252 257 255 253
229 221 225 277 288 246 57 49 100 231 254 238 266 277 300 312 305 299 298 293 292 292 297 309 312 308 309 306 303 301 299 298 294 288 286 283 278 275 272 268 261 259 258 256
214 198 201 236 232 306 195 195 197 340 289 331 297 310 309 319 315 299 322 316 300 301 301 301 300 297 300 298 294 293 294 293 290 287 285 281 279 277 273 268 266 263 263 259
151 180 207 167 244 265 112 119 44 148 264 74 342 316 318 322 300 297 309 300 297 297 301 300 298 297 294 293 293 294 294 290 283 282 280 278 278 274 272 270 268 265 262 260
146 180 212 232 252 263 87 352 288 257 28 313 302 302 303 296 287 295 300 299 298 299 301 305 299 294 288 291 292 289 292 284 280 280 279 276 279 273 270 269 265 262 259 256
191 178 195 205 237 260 70 241 290 333 300 289 299 304 301 297 298 299 300 298 296 298 304 304 291 290 289 289 289 289 285 284 281 284 285 278 269 264 266 268 264 257 254 252
228 272 300 216 295 116 240 276 285 293 292 295 298 303 303 295 290 296 299 302 301 294 304 306 290 290 290 290 286 285 283 285 285 275 279 268 268 271 273 264 260 259 252 246
178 218 257 278 154 278 302 290 274 306 299 303 299 300 301 298 297 296 300 300 294 295 307 302 298 285 293 288 292 280 288 283 276 279 278 275 273 270 264 261 258 256 250 246
298 266 259 260 295 323 220 307 315 309 303 306 306 305 302 298 293 296 301 302 292 294 309 300 295 289 289 294 289 287 282 279 277 275 279 277 273 270 267 263 259 253 252 247
222 263 252 321 334 294 302 314 312 309 312 311 309 308 304 297 292 296 296 298 290 300 306 298 297 291 294 292 291 288 284 283 281 277 275 272 270 269 267 267 268 267 264 260